This demonstration page uses our WeatherBlox Daily Observations layout. Learn more.

Left ArrowRight Arrow

31.84235, -102.49876

Hourly Observations for July 27, 2022

Temp ( °F °C ) Dew Point ( °F °C ) Humidity (%) Winds ( mph kmh ) Pressure ( in mb ) Visibility ( mi km ) Precip ( " mm )
12:53 am 00:53 Clear 87 30.6 56 13.3 35 35 S 17 28 29.87 1011 10 16 0.00 0.00
1:53 am 01:53 Clear 86 30 56 13.3 36 36 S 10 17 29.86 1011 10 16 0.00 0.00
2:53 am 02:53 Clear 85 29.4 56 13.3 37 37 S 9 15 29.86 1011 10 16 0.00 0.00
3:53 am 03:53 Clear 83 28.3 56 13.3 40 40 SSE 9 15 29.86 1011 10 16 0.00 0.00
4:53 am 04:53 Clear 82 27.8 56 13.3 41 41 S 13 20 29.85 1011 10 16 0.00 0.00
5:53 am 05:53 Clear 80 26.7 56 13.3 44 44 SSE 10 17 29.86 1011 10 16 0.00 0.00
6:53 am 06:53 Clear 79 26.1 57 13.9 47 47 S 13 20 29.87 1012 10 16 0.00 0.00
7:53 am 07:53 Sunny 79 26.1 60 15.6 52 52 S 12 19 29.89 1012 10 16 0.00 0.00
8:53 am 08:53 Sunny 82 27.8 63 17.2 53 53 S 14 22 29.89 1012 10 16 0.00 0.00
9:53 am 09:53 Sunny 84 28.9 64 17.8 51 51 S 13 20 29.90 1013 10 16 0.00 0.00
10:53 am 10:53 Sunny 87 30.6 64 17.8 46 46 S 12 19 29.90 1012 10 16 0.00 0.00
11:53 am 11:53 Sunny 90 32.2 62 16.7 39 39 SSW 10 17 29.89 1012 10 16 0.00 0.00
12:53 pm 12:53 Sunny 92 33.3 62 16.7 37 37 WSW 5 7 29.88 1012 10 16 0.00 0.00
1:53 pm 13:53 Sunny 94 34.4 59 15 31 31 ESE 9 15 29.86 1011 10 16 0.00 0.00
2:53 pm 14:53 Mostly Sunny 96 35.6 59 15 29 29 S 12 19 29.83 1010 10 16 0.00 0.00
3:53 pm 15:53 Sunny 97 36.1 56 13.3 25 25 SE 12 19 29.81 1010 10 16 0.00 0.00
4:53 pm 16:53 Partly Cloudy 101 38.3 57 13.9 23 23 S 14 22 29.78 1009 10 16 0.00 0.00
5:53 pm 17:53 Sunny 100 37.8 56 13.3 23 23 SE 18 30 29.77 1008 10 16 0.00 0.00
6:53 pm 18:53 Partly Cloudy 98 36.7 55 12.8 24 24 S 15 24 29.76 1008 10 16 0.00 0.00
7:53 pm 19:53 Sunny 97 36.1 54 12.2 24 24 SE 15 24 29.78 1008 10 16 0.00 0.00
8:53 pm 20:53 Clear 94 34.4 54 12.2 26 26 SSE 10 17 29.79 1009 10 16 0.00 0.00
9:53 pm 21:53 Clear 92 33.3 54 12.2 28 28 SSE 12 19 29.82 1010 10 16 0.00 0.00
10:53 pm 22:53 Clear 90 32.2 54 12.2 29 29 S 13 20 29.84 1010 10 16 0.00 0.00
11:53 pm 23:53 Clear 88 31.1 55 12.8 33 33 S 18 30 29.86 1011 10 16 0.00 0.00

Powered by AerisWeather